When you browse on this site, cookies collect data to enhance your experience and personalize the content and advertising you see.
Visit our Privacy Policy to learn more. By continuing to use the site, you agree to this use of cookies and data.
  • In United Kingdom
  • List of Countries
  • For 7 days
  • Water Temperature
  • Weather Map
  • Weather Widgets
  • user-avatar
    Login

    Hourly Weather Escuintla

    Today, 20 August, Tuesday

    Time Temperature Precipitation Wind Pressure Humidity
    00:00 +24°C° 0 mm 2 mps 729 mmHg 94%
    01:00 +24°C° 0.2 mm 2 mps 729 mmHg 93%
    02:00 +23°C° 0.2 mm 2 mps 728 mmHg 92%
    03:00 +23°C° 0.2 mm 2 mps 728 mmHg 91%
    04:00 +23°C° 0 mm 2 mps 728 mmHg 90%
    05:00 +23°C° 0 mm 2 mps 728 mmHg 90%
    06:00 +23°C° 0 mm 1 mps 728 mmHg 89%
    07:00 +25°C° 0 mm 1 mps 729 mmHg 82%
    08:00 +28°C° 0 mm 1 mps 729 mmHg 74%
    09:00 +28°C° 0 mm 0 mps 730 mmHg 67%
    10:00 +31°C° 0.3 mm 1 mps 729 mmHg 69%
    11:00 +31°C° 0.3 mm 2 mps 729 mmHg 71%
    12:00 +31°C° 0.3 mm 2 mps 729 mmHg 74%
    13:00 +30°C° 1.6 mm 2 mps 728 mmHg 78%
    14:00 +29°C° 1.6 mm 1 mps 728 mmHg 83%
    15:00 +29°C° 1.6 mm 1 mps 727 mmHg 87%
    16:00 +28°C° 0.8 mm 1 mps 728 mmHg 89%
    17:00 +26°C° 0.8 mm 0 mps 728 mmHg 90%
    18:00 +25°C° 0.8 mm 0 mps 728 mmHg 92%
    19:00 +24°C° 0.7 mm 0 mps 729 mmHg 93%
    20:00 +26°C° 0.7 mm 1 mps 729 mmHg 93%
    21:00 +25°C° 0.7 mm 1 mps 730 mmHg 94%
    22:00 +25°C° 0.4 mm 1 mps 730 mmHg 94%
    23:00 +25°C° 0.4 mm 1 mps 730 mmHg 93%

    Tomorrow, 21 August, Wednesday

    Time Temperature Precipitation Wind Pressure Humidity
    00:00 +24°C° 0.4 mm 1 mps 730 mmHg 93%
    01:00 +24°C° 0 mm 2 mps 729 mmHg 92%
    02:00 +24°C° 0 mm 2 mps 729 mmHg 91%
    03:00 +23°C° 0 mm 2 mps 728 mmHg 90%
    04:00 +23°C° 0 mm 2 mps 728 mmHg 88%
    05:00 +23°C° 0 mm 2 mps 729 mmHg 87%
    06:00 +23°C° 0 mm 2 mps 729 mmHg 85%
    07:00 +26°C° 0 mm 1 mps 729 mmHg 79%
    08:00 +28°C° 0 mm 1 mps 730 mmHg 74%
    09:00 +28°C° 0 mm 0 mps 730 mmHg 68%
    10:00 +31°C° 0.3 mm 1 mps 730 mmHg 69%
    11:00 +31°C° 0.3 mm 1 mps 730 mmHg 70%
    12:00 +32°C° 0.3 mm 1 mps 729 mmHg 72%
    13:00 +31°C° 0.6 mm 1 mps 729 mmHg 74%
    14:00 +31°C° 0.6 mm 1 mps 728 mmHg 76%
    15:00 +31°C° 0.6 mm 1 mps 728 mmHg 79%
    16:00 +30°C° 1 mm 1 mps 728 mmHg 84%
    17:00 +29°C° 1 mm 1 mps 728 mmHg 88%
    18:00 +26°C° 1 mm 0 mps 728 mmHg 93%
    19:00 +27°C° 0.4 mm 1 mps 729 mmHg 94%
    20:00 +26°C° 0.4 mm 1 mps 729 mmHg 94%
    21:00 +26°C° 0.4 mm 1 mps 730 mmHg 94%
    22:00 +26°C° 0.5 mm 1 mps 730 mmHg 94%
    23:00 +25°C° 0.5 mm 1 mps 730 mmHg 94%

    Day after tomorrow, 22 August, Thursday

    Time Temperature Precipitation Wind Pressure Humidity
    00:00 +25°C° 0.5 mm 1 mps 730 mmHg 94%
    01:00 +25°C° 0.7 mm 1 mps 729 mmHg 94%
    02:00 +25°C° 0.7 mm 1 mps 729 mmHg 94%
    03:00 +24°C° 0.7 mm 1 mps 729 mmHg 93%
    04:00 +24°C° 0.1 mm 2 mps 729 mmHg 92%
    05:00 +24°C° 0.1 mm 2 mps 729 mmHg 92%
    06:00 +24°C° 0.1 mm 2 mps 729 mmHg 91%
    07:00 +26°C° 0 mm 1 mps 729 mmHg 84%
    08:00 +28°C° 0 mm 1 mps 730 mmHg 77%
    09:00 +28°C° 0 mm 0 mps 730 mmHg 71%
    10:00 +31°C° 0 mm 1 mps 730 mmHg 69%
    11:00 +32°C° 0 mm 1 mps 729 mmHg 67%
    12:00 +32°C° 0 mm 1 mps 729 mmHg 65%
    13:00 +32°C° 0.6 mm 1 mps 729 mmHg 71%
    14:00 +31°C° 0.6 mm 1 mps 728 mmHg 76%
    15:00 +30°C° 0.6 mm 1 mps 728 mmHg 82%
    16:00 +29°C° 0.3 mm 1 mps 728 mmHg 85%
    17:00 +29°C° 0.3 mm 1 mps 728 mmHg 88%
    18:00 +26°C° 0.3 mm 0 mps 728 mmHg 92%
    19:00 +27°C° 0.3 mm 1 mps 729 mmHg 92%
    20:00 +26°C° 0.3 mm 1 mps 729 mmHg 92%
    21:00 +26°C° 0.3 mm 1 mps 730 mmHg 93%
    22:00 +25°C° 0.1 mm 1 mps 730 mmHg 91%
    23:00 +25°C° 0.1 mm 1 mps 729 mmHg 90%

    23 August, Friday

    Time Temperature Precipitation Wind Pressure Humidity
    00:00 +24°C° 0.1 mm 2 mps 729 mmHg 89%
    01:00 +24°C° 0 mm 2 mps 729 mmHg 88%
    02:00 +24°C° 0 mm 2 mps 729 mmHg 87%
    03:00 +24°C° 0 mm 2 mps 728 mmHg 85%
    04:00 +24°C° 0 mm 2 mps 729 mmHg 84%
    05:00 +24°C° 0 mm 1 mps 729 mmHg 84%
    06:00 +24°C° 0 mm 1 mps 729 mmHg 83%
    07:00 +26°C° 0 mm 1 mps 729 mmHg 78%
    08:00 +29°C° 0 mm 1 mps 730 mmHg 73%
    09:00 +29°C° 0 mm 0 mps 730 mmHg 69%
    10:00 +31°C° 0.5 mm 1 mps 730 mmHg 67%
    11:00 +32°C° 0.5 mm 1 mps 730 mmHg 66%
    12:00 +33°C° 0.5 mm 1 mps 730 mmHg 64%
    13:00 +32°C° 0.5 mm 1 mps 729 mmHg 67%
    14:00 +32°C° 0.5 mm 2 mps 728 mmHg 69%
    15:00 +32°C° 0.5 mm 2 mps 728 mmHg 72%
    16:00 +31°C° 0.3 mm 1 mps 728 mmHg 78%
    17:00 +29°C° 0.3 mm 1 mps 728 mmHg 84%
    18:00 +26°C° 0.3 mm 0 mps 728 mmHg 90%
    19:00 +27°C° 0.2 mm 1 mps 728 mmHg 91%
    20:00 +26°C° 0.2 mm 1 mps 729 mmHg 91%
    21:00 +26°C° 0.2 mm 1 mps 729 mmHg 92%
    22:00 +25°C° 0 mm 1 mps 729 mmHg 91%
    23:00 +25°C° 0 mm 1 mps 729 mmHg 90%

    24 August, Saturday

    Time Temperature Precipitation Wind Pressure Humidity
    00:00 +25°C° 0 mm 1 mps 729 mmHg 89%
    01:00 +25°C° 0 mm 1 mps 729 mmHg 88%
    02:00 +25°C° 0 mm 1 mps 729 mmHg 87%
    03:00 +24°C° 0 mm 1 mps 729 mmHg 85%
    04:00 +24°C° 0 mm 1 mps 729 mmHg 84%
    05:00 +24°C° 0 mm 1 mps 729 mmHg 83%
    06:00 +24°C° 0 mm 1 mps 729 mmHg 82%
    07:00 +26°C° 0 mm 1 mps 729 mmHg 77%
    08:00 +28°C° 0 mm 1 mps 730 mmHg 72%
    09:00 +31°C° 0 mm 1 mps 730 mmHg 68%
    10:00 +31°C° 0.1 mm 1 mps 730 mmHg 67%
    11:00 +32°C° 0.1 mm 1 mps 730 mmHg 66%
    12:00 +33°C° 0.1 mm 1 mps 729 mmHg 65%
    13:00 +33°C° 0.4 mm 1 mps 729 mmHg 66%
    14:00 +33°C° 0.4 mm 1 mps 728 mmHg 67%
    15:00 +33°C° 0.4 mm 1 mps 728 mmHg 68%
    16:00 +31°C° 0.5 mm 1 mps 728 mmHg 76%
    17:00 +30°C° 0.5 mm 1 mps 728 mmHg 84%
    18:00 +28°C° 0.5 mm 1 mps 728 mmHg 92%
    19:00 +27°C° 0.1 mm 1 mps 728 mmHg 93%
    20:00 +27°C° 0.1 mm 1 mps 729 mmHg 93%
    21:00 +26°C° 0.1 mm 1 mps 730 mmHg 93%
    22:00 +26°C° 0 mm 1 mps 729 mmHg 93%
    23:00 +25°C° 0 mm 1 mps 729 mmHg 92%

    25 August, Sunday

    Time Temperature Precipitation Wind Pressure Humidity
    00:00 +25°C° 0 mm 2 mps 729 mmHg 92%
    01:00 +25°C° 0 mm 2 mps 729 mmHg 90%
    02:00 +25°C° 0 mm 2 mps 728 mmHg 89%
    03:00 +24°C° 0 mm 2 mps 728 mmHg 88%
    04:00 +24°C° 0 mm 2 mps 728 mmHg 86%
    05:00 +24°C° 0 mm 2 mps 728 mmHg 85%
    06:00 +24°C° 0 mm 2 mps 728 mmHg 83%
    07:00 +26°C° 0 mm 1 mps 729 mmHg 78%
    08:00 +28°C° 0 mm 1 mps 729 mmHg 73%
    09:00 +29°C° 0 mm 0 mps 730 mmHg 68%
    10:00 +31°C° 0.3 mm 1 mps 729 mmHg 67%
    11:00 +32°C° 0.3 mm 1 mps 729 mmHg 66%
    12:00 +33°C° 0.3 mm 1 mps 729 mmHg 65%
    13:00 +32°C° 1 mm 1 mps 728 mmHg 71%
    14:00 +31°C° 1 mm 1 mps 728 mmHg 76%
    15:00 +30°C° 1 mm 1 mps 727 mmHg 82%
    16:00 +29°C° 0.5 mm 1 mps 727 mmHg 86%
    17:00 +26°C° 0.5 mm 0 mps 727 mmHg 90%
    18:00 +25°C° 0.5 mm 0 mps 727 mmHg 94%
    19:00 +25°C° 0.1 mm 0 mps 728 mmHg 94%
    20:00 +26°C° 0.1 mm 1 mps 728 mmHg 94%
    21:00 +26°C° 0.1 mm 1 mps 729 mmHg 94%
    22:00 +25°C° 0 mm 1 mps 728 mmHg 93%
    23:00 +25°C° 0 mm 1 mps 728 mmHg 93%
    Show more